Regional Weather Roundup
Issued by NWS Charleston, SC

Current Version | Previous Version | Graphics & Text | Print | Product List | Glossary On
Versions: 1 2 3 4 5 6 7 8 9 10 11 12 13 14 15 16 17 18 19 20 21 22 23 24 25 26 27 28 29 30 31 32 33 34 35 36 37 38 39 40 41 42 43 44 45 46 47 48 49 50
000 ASUS42 KCHS 280313 RWRCHS REGIONAL WEATHER ROUNDUP NATIONAL WEATHER SERVICE CHARLESTON SC 1100 PM EDT WED APR 27 2016 NOTE: "FAIR" INDICATES FEW OR NO CLOUDS BELOW 12,000 FEET WITH NO SIGNIFICANT WEATHER AND/OR OBSTRUCTIONS TO VISIBILITY. NOT ALL STATIONS ARE QUALITY CONTROLLED. USE DATA WITH CAUTION... ESPECIALLY DEWPOINT OBSERVATIONS. SCZ027-030-031-034>040-042>050-280400- ...SOUTHEAST SOUTH CAROLINA... CITY SKY/WX TMP DP RH WIND PRES REMARKS N CHARLESTON CLOUDY 71 64 78 S10 29.93R WATERFRONT PRK N/A 72 67 84 SW7 29.91R MOUNT PLEASANT FAIR 72 66 83 S8 29.94R JOHNS ISLAND FAIR 72 68 88 S8 29.94R PINOPOLIS N/A 73 63 68 S5 29.85R MONCKS CORNER FAIR 68 59 73 SW7 29.93R SUMMERVILLE FAIR 70 64 83 S3 29.94R BEAUFORT MCAS PTCLDY 73 64 73 S9 29.93R BEAUFORT ARPT FAIR 72 64 78 S8G17 29.93R HILTON HEAD IS CLOUDY 73 70 88 S6 29.95R WALTERBORO CLOUDY 72 64 78 S8 29.93S ALLENDALE FAIR 73 59 60 S7 29.91R ...SOUTHERN MIDLANDS AND PEE DEE... CITY SKY/WX TMP DP RH WIND PRES REMARKS GEORGETOWN FAIR 68 63 83 SW10 29.94R KINGSTREE FAIR 70 59 68 SE3 29.92R ORANGEBURG CLOUDY 72 59 63 S9 29.92R BARNWELL FAIR 75 63 64 CALM 29.91S AIKEN FAIR 72 63 73 S8 29.93R MANNING NOT AVBL COLUMBIA PTCLDY 76 63 64 S9 29.88R SUMTER CLOUDY 74 60 61 S8 29.88R FLORENCE CLOUDY 73 61 65 S9 29.90R MYRTLE BEACH CLEAR 72 61 68 SW13 29.95R N MYRTLE BEACH CLEAR 70 66 87 SW15 29.92R $$ GAZ063-065-086>088-099>101-113>116-118-119-134>141-150-280400- ...SOUTHEAST GEORGIA... CITY SKY/WX TMP DP RH WIND PRES REMARKS SAVANNAH ARPT CLOUDY 72 63 73 S10 29.94R HUNTER AAF PTCLDY 73 66 79 VRB7 29.92R FORT STEWART CLOUDY 72 62 70 CALM 29.91R STATESBORO PTCLDY 76 64 65 S7 29.91S SYLVANIA PTCLDY 73 63 68 S5 29.92S CLAXTON FAIR 74 64 69 SE5 29.92R ...CSRA...CENTRAL AND FAR SOUTHEAST GEORGIA... CITY SKY/WX TMP DP RH WIND PRES REMARKS THOMSON CLOUDY 72 66 82 SW5 29.92S AUGUSTA-BUSH MOCLDY 70 64 81 S7 29.88R AUGUSTA-DANIEL MOCLDY 76 60 57 SE7 29.89R SWAINSBORO FAIR 70 63 78 S3 29.91S VIDALIA PTCLDY 73 64 73 S5 29.92R EASTMAN MOCLDY 75 66 73 CALM 29.94R HAZLEHURST FAIR 75 63 67 SW5 29.91R ALMA CLOUDY 73 63 70 SW3 29.92R WAYCROSS MOCLDY 73 65 76 SW6 29.93R JESUP FAIR 73 64 73 CALM 29.94R BAXLEY FAIR 73 66 78 CALM 29.92R BRUNSWICK PTCLDY 79 70 73 S8 29.95R SAINT SIMONS CLOUDY 72 67 84 S12G20 29.94R $$ SCZ027-028-034-036>038-045-046-048>050-GAZ119-141-280400- ...LAKE AND SUPPLEMENTAL COASTAL OBSERVATIONS... STATION/POSITION TIME TEMP WIND PRES WAVE SWELL AIR SEA DIR/SP/G HT/PER HT/PER/DIR (UTC) (F) (DEG/KT/KT) (MB) (FT/S) (FT/S/D) WINYAH BAY 0145 71 210/ 8 1012.0 LAKE MURRAY 0200 76 180/ 3/ 6 1011.2R ACE BASIN NERRS NOT AVBL FORT PULASKI 0200 70 1013.7R SAPELO ISLAND 0200 73 180/ 12 1013.0R $$ ANZ835-935-AMZ111-154-330-350-352-354-370-450-454-472-280400- ...C-MAN AND BUOY OBSERVATIONS... STATION/POSITION TIME TEMP WIND PRES WAVE SWELL AIR SEA DIR/SP/G HT/PER HT/PER/DIR (UTC) (F) (DEG/KT/KT) (MB) (FT/S) (FT/S/D) BUOY 41004 0250 74 73 190/ 14/ 16 1013.3R 2/ 4 2/ 7 BUOY 41008 NOT AVBL FOLLY BEACH CMAN 0200 71 200/ 10/ 11 1013.5R CAPERS NEARSHORE 0208 71 69 210/ 12/ 16 1013.1R FRIPP NEARSHORE 0208 72 71 190/ 16/ 19 1012.5R STATION/POSITION TIME TEMP WIND PRES WAVE SWELL AIR SEA DIR/SP/G HT/PER HT/PER/DIR (UTC) (F) (DEG/KT/KT) (MB) (FT/S) (FT/S/D) 5E ST. MARYS GA 0221 73 N/A 4/ 4 FRYING PAN BUOY 0200 72 72 200/ 12/ 14 1013.0R BUOY 41025 0250 73 71 220/ 16/ 17 1012.6R 4/ 5 2/110/13 CAPE LOOKOUT NC 0200 69 220/ 10/ 12 1012.5R BUOY 41002 0250 71 71 160/ 10/ 12 1016.5R 2/ 9 2/ 70/ 9 BUOY 41010 0220 75 76 140/ 10/ 12 1015.5R ST AUGUSTINE FL 0300 73 73 180/ 10/ 11 1015.1R $$

USA.gov is the U.S. government's official web portal to all federal, state and local government web resources and services.